Location: Arnolds Mill
(42.3415°N, 73.5951°W)
Time: 04:52:52
(UTC+00:00)

Oscar 11 - Pass Details

Date: 11 May 2026
Orbit: 591 x 601 km, 97.8° (Epoch: 11 June)

Event Time Altitude Azimuth Distance (km) Brightness Sun altitude
Rises 07:48:57 0° 22° (NNE) 2,860 11.8 -17.1°
Reaches altitude 10° 07:51:21 10° 33° (NNE) 1,951 10.9 -16.8°
Maximum altitude 07:55:08 31° 96° (E) 1,060 8.6 -16.3°
Drops below altitude 10° 07:58:53 10° 160° (SSE) 1,935 9.4 -15.8°
Enters shadow 07:59:48 - 165° (SSE) 2,274 9.7 -15.7°
